Retour au catalogue

MIDAS 5 DEB

ActifPO
NORAD 19981·DEBRIS·🇺🇸 United States

Lancé Apr 9, 1962 depuis Vandenberg Space Force Base

Loading…

Prochains Passages (prochaines 24 heures)

TLE

VieillissantSource: Space-Track

Époque: Sep 6, 2026, 12:34 UTC

1 19981U 62010H   26249.52408356 -.00000005  00000-0 -18759-2 0  9992
2 19981  86.6672 303.1067 0338885 191.2609 168.0566  9.43013929313186

Suivez MIDAS 5 DEB en temps réel avec AllMySat

Download on the App Store